OBJECT AH, 43789

Orbit data source: Space-Track

You're viewing an Uncataloged Satellite

Recently launched and/or uncataloged satellites may have evolving metadata. Metadata may include but not limited to: Owner, Maufacturer, Bus, Motor, and Mission.

OBJECT AH, 43789 is a satellite in SSO that was launched on Mon, 03 Dec 2018 UTC via an FALCON 9 launch vehicle from the Air Force Western Test Range (AFWTR). Unknown objects in Earth's orbit typically refer to objects detected orbiting the Earth but have not yet been identified or cataloged. These objects could be anything from previously untracked satellites, spent rocket stages, debris from satellite collisions, or even natural meteoroids temporarily captured by Earth's gravity.

Loading next visibility...
Identifier
43789, 2018-099AH
Orbit
SSO
Country
Flag of TBDTBD
Related business
Flag of USIrvine Public Schools Foundation (US)
Manufacturer
IPSF
Mission
Non-operational Amateur Technology
Bus & Motor
CUBESAT 1U, Unknown motor
Mass
1 kg wet, 1 kg dry
Launch date (UTC)
2018-12-03 (7 years ago)
Launch vehicle
FALCON 9
Launch site
Air Force Western Test Range (AFWTR)
Object type
Unknown
Shape & HBR
Box + 2 Pan, 0.1 m
Radar Cross Section
0.019 m², Small (<0.1 m²)

Expand to show TLE details & history
Last TLE update: 18 hours ago

TLE from 18 hours ago
0 OBJECT AH
1 43789U 18099AH  25258.42880442  .00090448  00000-0  19162-2 0  9998
2 43789  97.4552 328.3994 0008939 149.3921 210.7850 15.44722601372075
Epoch: 2025-09-15T10:17Z
TLE epoch observation values (Epoch: 2025-09-15T10:17:28.701Z)
Latitude
-0.00011°
Longitude
179.39623°
Altitude
440.548 km
Speed
7.645 km/s
True Right ascension
21h 53m 35s
True Declination
0° 00' 00"
Sunlit
Object was in full shadow at epoch
Visualization orbit readout
Latitude
Unknown
Longitude
Unknown
Altitude
Unknown
Speed
Unknown
Apparent Right ascension
Unknown
Apparent Declination
Unknown
Sunlit
N/A
Visualization observer readout
Local Sidereal Time
20:41:50
Azimuth
Unknown
Elevation
Unknown
Doppler factor
Unknown
Orbital elements
Apogee altitude
435.213 km
Perigee altitude
423.043 km
Semi-major axis
6,807.265 km
Eccentricity
0.00089
Inclination
97.4552°
RAAN
328.3994°
Arg. of periapsis
149.3921°
True anomaly
210.73262°
Mean anomaly
210.785°
Eccentric anomaly
210.75881°
Mean motion
3.86442 °/min
Orbital period
93.16 mins
BSTAR
0.0019162
Loading maneuver chart data...
Computing Atmospheric mass density...
Loading historical data...
Loading historical data...
Loading historical data...
Loading historical data...
Loading historical data...
Loading historical data...
Loading historical data...

Documentation

Showing up to 5 results
|